This is the latest recevied weather packets stored in our database for station/object W0DXV. If no packets are shown the sender has not sent any weather packets the latest 10 day(s).
| Time | Temp. | Humidity | Pressure | Rain* | Wind** | Luminosity | Snow |
|---|---|---|---|---|---|---|---|
| 1777981257 | 8.89° C | 96% | 1012.4 hPa | 0 mm | - | 55 W/m² | - |
| 1777980954 | 8.33° C | 96% | 1012.4 hPa | 0 mm | - | 44 W/m² | - |
| 1777980650 | 7.78° C | 96% | 1012.1 hPa | 0 mm | - | 37 W/m² | - |
| 1777980346 | 7.78° C | 96% | 1012.2 hPa | 0 mm | - | 26 W/m² | - |
| 1777980044 | 7.22° C | 96% | 1012.2 hPa | 0 mm | - | 21 W/m² | - |
| 1777979738 | 7.22° C | 96% | 1012 hPa | 0 mm | - | 19 W/m² | - |
| 1777979435 | 7.22° C | 96% | 1012.2 hPa | 0 mm | - | 18 W/m² | - |
| 1777979131 | 7.22° C | 96% | 1012.4 hPa | 0 mm | - | 17 W/m² | - |
| 1777978828 | 7.22° C | 96% | 1012.1 hPa | 0 mm | - | 15 W/m² | - |
| 1777978525 | 7.22° C | 96% | 1012.3 hPa | 0 mm | - | 13 W/m² | - |
| 1777978220 | 7.22° C | 96% | 1012.2 hPa | 0 mm | - | 10 W/m² | - |
| 1777977918 | 7.22° C | 96% | 1012.2 hPa | 0 mm | - | 8 W/m² | - |
| 1777977615 | 7.22° C | 96% | 1012.1 hPa | 0 mm | - | 6 W/m² | - |
| 1777977312 | 6.67° C | 96% | 1012.1 hPa | 0 mm | - | 5 W/m² | - |
| 1777977009 | 7.22° C | 96% | 1012.1 hPa | 0 mm | - | 3 W/m² | - |
| 1777976706 | 7.22° C | 95% | 1011.9 hPa | 0 mm | - | 2 W/m² | - |
| 1777976404 | 7.22° C | 95% | 1012 hPa | 0 mm | - | 1 W/m² | - |
| 1777976102 | 7.22° C | 95% | 1012.1 hPa | 0 mm | - | 0 W/m² | - |
| 1777975798 | 7.22° C | 95% | 1012.2 hPa | 0 mm | - | 0 W/m² | - |
| 1777975495 | 7.78° C | 95% | 1011.8 hPa | 0 mm | - | 0 W/m² | - |
| 1777975191 | 7.78° C | 96% | 1011.6 hPa | 0 mm | - | 0 W/m² | - |
| 1777974888 | 7.78° C | 96% | 1011.7 hPa | 0 mm | - | 0 W/m² | - |
| 1777974584 | 7.78° C | 96% | 1012 hPa | 0 mm | - | 0 W/m² | - |
| 1777974281 | 7.78° C | 96% | 1011.8 hPa | 0 mm | - | 0 W/m² | - |
| 1777973977 | 7.22° C | 96% | 1011.8 hPa | 0 mm | - | 0 W/m² | - |
* Rain latest hour (hover to see other rain measurements)
** Current wind speed in m/s (hover to see current wind gust speed)